sat.trackr.live / text

‹ back to catalog

KUIPER-00488

NORAD 68879 · 2026-095R

PAYLOAD ACTIVE UNKNOWN

§ Identity

Operator
Country
US
Launch date
2026-04-28
Launch site
AFETR
Launch vehicle
Mass (kg)
RCS (m²)

External: N2YO · Heavens-Above · Gunter

§ Orbital elements

Epoch: 2026-09-20T03:53:42.508320Z

Period
97.30 min
Inclination
51.8984°
Eccentricity
0.0001226
Mean motion
14.79934610 rev/d
Perigee alt
628.7 km
Apogee alt
630.4 km
Semi-major
7,007.7 km
B*
3.0542e-4
RAAN
175.6908°
Arg perigee
80.4588°
Mean anomaly
279.6512°
Rev number
2,188

§ Raw data

KUIPER-004881 68879U 26095R   26263.16229755  .00002108  00000+0  30542-3 0  99932 68879  51.8984 175.6908 0001226  80.4588 279.6512 14.79934610 21880

JSON: /api/v1/satellites/68879 · /tle

For live sub-satellite position, see the globe view (requires WebGL).

§ Visibility from observer

Set your observer location to see the next 7 days of passes ≥ 10°. The values pass through the URL so the page stays shareable.

No JS? Fill the form by hand. The geolocation button needs JavaScript.